This is the latest recevied weather packets stored in our database for station/object KO6HRZ. If no packets are shown the sender has not sent any weather packets the latest 10 day(s).
| Time | Temp. | Humidity | Pressure | Rain* | Wind** | Luminosity | Snow |
|---|---|---|---|---|---|---|---|
| 1777214737 | 11.67° C | 95% | 1011.9 hPa | 0 mm | - | 20 W/m² | - |
| 1777214137 | 11.67° C | 95% | 1011.7 hPa | 0 mm | - | 28 W/m² | - |
| 1777213533 | 11.67° C | 94% | 1011.9 hPa | 0 mm | - | 18 W/m² | - |
| 1777212933 | 11.67° C | 94% | 1011.5 hPa | 0.51 mm | - | 10 W/m² | - |
| 1777212329 | 11.67° C | 93% | 1011.7 hPa | 0 mm | - | 7 W/m² | - |
| 1777211727 | 11.67° C | 92% | 1011.6 hPa | 0 mm | - | 6 W/m² | - |
| 1777211121 | 11.67° C | 92% | 1011.5 hPa | 0.51 mm | - | 4 W/m² | - |
| 1777210517 | 11.67° C | 91% | 1011.3 hPa | 0 mm | - | 2 W/m² | - |
| 1777209916 | 11.67° C | 91% | 1011.1 hPa | 0 mm | - | 1 W/m² | - |
| 1777209314 | 11.11° C | 91% | 1011 hPa | 0 mm | - | 1 W/m² | - |
| 1777208712 | 11.11° C | 91% | 1011 hPa | 0 mm | - | 0 W/m² | - |
| 1777208111 | 11.11° C | 91% | 1010.8 hPa | 0 mm | - | 0 W/m² | - |
| 1777207512 | 11.11° C | 92% | 1010.7 hPa | 0 mm | - | 0 W/m² | - |
| 1777206908 | 11.11° C | 92% | 1010.9 hPa | 0 mm | - | 0 W/m² | - |
| 1777206305 | 11.11° C | 93% | 1010.9 hPa | 0 mm | - | 0 W/m² | - |
| 1777205702 | 11.11° C | 93% | 1010.8 hPa | 0 mm | - | 0 W/m² | - |
| 1777205101 | 11.11° C | 93% | 1010.8 hPa | 0 mm | - | 0 W/m² | - |
| 1777204497 | 11.11° C | 93% | 1010.7 hPa | 0 mm | - | 0 W/m² | - |
| 1777203895 | 11.11° C | 92% | 1010.7 hPa | 0 mm | - | 0 W/m² | - |
| 1777203292 | 11.67° C | 89% | 1010.7 hPa | 0 mm | - | 0 W/m² | - |
| 1777202691 | 11.67° C | 88% | 1010.7 hPa | 0 mm | - | 0 W/m² | - |
| 1777202090 | 11.67° C | 87% | 1010.8 hPa | 0 mm | - | 0 W/m² | - |
| 1777201490 | 11.67° C | 86% | 1010.7 hPa | 0 mm | - | 0 W/m² | - |
| 1777200887 | 11.67° C | 86% | 1010.7 hPa | 0 mm | - | 0 W/m² | - |
| 1777200283 | 11.67° C | 86% | 1010.7 hPa | 0 mm | - | 0 W/m² | - |
* Rain latest hour (hover to see other rain measurements)
** Current wind speed in m/s (hover to see current wind gust speed)